Weather in Alofi

Niue     19°03′27″S   169°55′19″W
temp.,
°C
wind,
m/s
gust,
m/s
humid.,
%
clouds,
%
prec.,
mm/h
press.,
hPa
HPBL,
m
8 march, mon
mon801:00+28sw6782100 1.4 1009764
04:00+27s7784100 2.1 1008601
07:00+27ssw678288 3.1 1009653
10:00+27ssw567869 0.0 1010737
13:00+27s788056 0.3 1009742
16:00+26ssw787487 0.0 1008827
19:00+26sse777787 0.0 1010847
22:00+26sse667538 0.0 1011903
9 march, tue
tue901:00+25sse667568 0.1 1011842
04:00+26s6670100 0.1 1010971
07:00+25sse767195 0.1 1012984
10:00+26sse556692 0.1 10131057
13:00+26sse556496 0.1 10121122
16:00+26sse6562100 0.0 10111327
19:00+26se4562100 0.0 10121299
22:00+26ese5663100 0.0 10141295
10 march, wed
wed1001:00+26ese5565100 0.1 10131149
04:00+26sse5563100 0.1 10121199
07:00+26sse545867 0.1 10141227
10:00+26se555925 0.0 10141188
13:00+26se665952 0.0 10131170
16:00+26sse456531 0.0 10121177
19:00+26sse336850 0.0 1013715
22:00+26se446846 0.0 10141084
11 march, thu
thu1101:00+26e656450 0.0 10131092
04:00+26ese556142 0.0 10121150
07:00+26ese566232 0.0 10131059
10:00+26ene566257 0.0 10141056
13:00+26ene346056 0.0 1012837
16:00+26e125774 0.0 1011721
19:00+27ene225661 0.0 1012845
22:00+26ene33590 0.0 1013925
12 march, fri
fri1201:00+26ese33711 0.0 1012800
04:00+26ese33712 0.0 1011471
07:00+26ese43741 0.1 1012637
10:00+27ese547350 0.0 1013676
13:00+27e557151 0.0 1012690
16:00+27ese446873 0.0 1010786
19:00+27ese446945 0.0 1011821
22:00+27ese44729 0.0 1013882